When you browse on this site, cookies collect data to enhance your experience and personalize the content and advertising you see.
Visit our Privacy Policy to learn more. By continuing to use the site, you agree to this use of cookies and data.
  • In Hungary
  • List of Countries
  • For 7 days
  • Water Temperature
  • Satellite Maps
  • Weather Map
  • News
  • Weather Widgets
  • user-avatar
    Login

    Hourly Weather Kyurek

    Today, 20 November, Tuesday

    Time Temperature Precipitation Wind Pressure Humidity
    00:00 +1°C° 0 mm 3 mps 675 mmHg 52%
    01:00 +2°C° 0 mm 3 mps 675 mmHg 51%
    02:00 +2°C° 0 mm 3 mps 674 mmHg 49%
    03:00 +2°C° 0 mm 3 mps 674 mmHg 49%
    04:00 +2°C° 0 mm 3 mps 674 mmHg 49%
    05:00 +2°C° 0 mm 3 mps 674 mmHg 48%
    06:00 +3°C° 0 mm 3 mps 673 mmHg 48%
    07:00 +4°C° 0 mm 3 mps 673 mmHg 47%
    08:00 +5°C° 0 mm 3 mps 673 mmHg 46%
    09:00 +8°C° 0 mm 2 mps 673 mmHg 45%
    10:00 +9°C° 0 mm 2 mps 673 mmHg 45%
    11:00 +10°C° 0 mm 2 mps 673 mmHg 45%
    12:00 +12°C° 0 mm 1 mps 672 mmHg 45%
    13:00 +11°C° 0 mm 1 mps 672 mmHg 49%
    14:00 +11°C° 0 mm 1 mps 671 mmHg 53%
    15:00 +9°C° 0 mm 2 mps 671 mmHg 64%
    16:00 +8°C° 0 mm 2 mps 671 mmHg 67%
    17:00 +7°C° 0 mm 2 mps 671 mmHg 69%
    18:00 +7°C° 0 mm 2 mps 671 mmHg 71%
    19:00 +7°C° 0 mm 2 mps 670 mmHg 70%
    20:00 +7°C° 0 mm 2 mps 670 mmHg 68%
    21:00 +7°C° 0 mm 2 mps 670 mmHg 67%
    22:00 +6°C° 0 mm 2 mps 669 mmHg 67%
    23:00 +5°C° 0 mm 3 mps 669 mmHg 68%

    Tomorrow, 21 November, Wednesday

    Time Temperature Precipitation Wind Pressure Humidity
    00:00 +5°C° 0 mm 3 mps 669 mmHg 69%
    01:00 +4°C° 0 mm 3 mps 669 mmHg 71%
    02:00 +4°C° 0 mm 3 mps 669 mmHg 72%
    03:00 +4°C° 0 mm 3 mps 669 mmHg 74%
    04:00 +4°C° 0.1 mm 3 mps 669 mmHg 76%
    05:00 +4°C° 0.1 mm 2 mps 670 mmHg 78%
    06:00 +4°C° 0.1 mm 2 mps 670 mmHg 80%
    07:00 +5°C° 0 mm 2 mps 670 mmHg 78%
    08:00 +5°C° 0 mm 2 mps 670 mmHg 76%
    09:00 +6°C° 0 mm 2 mps 671 mmHg 74%
    10:00 +5°C° 0.1 mm 3 mps 671 mmHg 75%
    11:00 +5°C° 0.1 mm 3 mps 671 mmHg 77%
    12:00 +5°C° 0.1 mm 3 mps 670 mmHg 78%
    13:00 +4°C° 0.3 mm 3 mps 670 mmHg 81%
    14:00 +4°C° 0.3 mm 3 mps 670 mmHg 85%
    15:00 +3°C° 0.3 mm 3 mps 670 mmHg 88%
    16:00 +4°C° 0.1 mm 2 mps 670 mmHg 89%
    17:00 +4°C° 0.1 mm 2 mps 671 mmHg 90%
    18:00 +4°C° 0.1 mm 2 mps 671 mmHg 92%
    19:00 +3°C° 0 mm 2 mps 671 mmHg 92%
    20:00 +3°C° 0 mm 2 mps 671 mmHg 92%
    21:00 +3°C° 0 mm 2 mps 671 mmHg 92%
    22:00 +3°C° 0 mm 2 mps 670 mmHg 91%
    23:00 +3°C° 0 mm 2 mps 670 mmHg 91%

    Day after tomorrow, 22 November, Thursday

    Time Temperature Precipitation Wind Pressure Humidity
    00:00 +3°C° 0 mm 2 mps 670 mmHg 91%
    01:00 +4°C° 0 mm 1 mps 670 mmHg 90%
    02:00 +3°C° 0 mm 1 mps 670 mmHg 90%
    03:00 +3°C° 0 mm 1 mps 670 mmHg 89%
    04:00 +3°C° 0 mm 1 mps 670 mmHg 89%
    05:00 +3°C° 0 mm 1 mps 669 mmHg 88%
    06:00 +3°C° 0 mm 1 mps 669 mmHg 87%
    07:00 +4°C° 0 mm 1 mps 670 mmHg 85%
    08:00 +5°C° 0 mm 1 mps 670 mmHg 83%
    09:00 +5°C° 0 mm 1 mps 670 mmHg 81%
    10:00 +5°C° 0 mm 2 mps 670 mmHg 81%
    11:00 +5°C° 0 mm 2 mps 670 mmHg 80%
    12:00 +6°C° 0 mm 2 mps 669 mmHg 79%
    13:00 +5°C° 0 mm 2 mps 669 mmHg 81%
    14:00 +5°C° 0 mm 2 mps 669 mmHg 83%
    15:00 +5°C° 0 mm 2 mps 668 mmHg 85%
    16:00 +4°C° 0 mm 2 mps 668 mmHg 87%
    17:00 +4°C° 0 mm 2 mps 669 mmHg 88%
    18:00 +3°C° 0 mm 2 mps 669 mmHg 90%
    19:00 +3°C° 0 mm 2 mps 669 mmHg 89%
    20:00 +3°C° 0 mm 2 mps 669 mmHg 88%
    21:00 +3°C° 0 mm 2 mps 669 mmHg 87%
    22:00 +3°C° 0 mm 2 mps 669 mmHg 87%
    23:00 +3°C° 0 mm 2 mps 669 mmHg 87%

    23 November, Friday

    Time Temperature Precipitation Wind Pressure Humidity
    00:00 +3°C° 0 mm 2 mps 669 mmHg 87%
    01:00 +3°C° 0 mm 2 mps 669 mmHg 86%
    02:00 +2°C° 0 mm 2 mps 669 mmHg 86%
    03:00 +2°C° 0 mm 2 mps 669 mmHg 85%
    04:00 +2°C° 0 mm 2 mps 669 mmHg 85%
    05:00 +2°C° 0 mm 2 mps 669 mmHg 84%
    06:00 +2°C° 0 mm 2 mps 669 mmHg 84%
    07:00 +3°C° 0 mm 2 mps 669 mmHg 81%
    08:00 +4°C° 0 mm 2 mps 670 mmHg 79%
    09:00 +4°C° 0 mm 2 mps 670 mmHg 76%
    10:00 +5°C° 0 mm 2 mps 670 mmHg 76%
    11:00 +5°C° 0 mm 2 mps 670 mmHg 75%
    12:00 +5°C° 0 mm 3 mps 670 mmHg 75%
    13:00 +4°C° 0.1 mm 3 mps 670 mmHg 77%
    14:00 +5°C° 0.1 mm 2 mps 671 mmHg 80%
    15:00 +4°C° 0.1 mm 2 mps 671 mmHg 82%
    16:00 +4°C° 0.1 mm 2 mps 671 mmHg 85%
    17:00 +3°C° 0.1 mm 2 mps 672 mmHg 87%
    18:00 +2°C° 0.1 mm 2 mps 672 mmHg 90%
    19:00 +1°C° 0.1 mm 3 mps 673 mmHg 88%
    20:00 +1°C° 0.1 mm 3 mps 674 mmHg 87%
    21:00 0°C° 0.1 mm 4 mps 675 mmHg 85%
    22:00 -1°C° 0 mm 4 mps 675 mmHg 84%
    23:00 -1°C° 0 mm 4 mps 676 mmHg 84%

    24 November, Saturday

    Time Temperature Precipitation Wind Pressure Humidity
    00:00 -2°C° 0 mm 4 mps 676 mmHg 83%
    01:00 -1°C° 0 mm 3 mps 676 mmHg 83%
    02:00 -2°C° 0 mm 3 mps 677 mmHg 82%
    03:00 -2°C° 0 mm 3 mps 677 mmHg 82%
    04:00 -2°C° 0 mm 2 mps 677 mmHg 82%
    05:00 -2°C° 0 mm 2 mps 678 mmHg 81%
    06:00 -2°C° 0 mm 2 mps 678 mmHg 81%
    07:00 -1°C° 0 mm 2 mps 679 mmHg 77%
    08:00 -1°C° 0 mm 2 mps 679 mmHg 73%
    09:00 +2°C° 0 mm 1 mps 680 mmHg 69%
    10:00 +2°C° 0 mm 2 mps 680 mmHg 68%
    11:00 +3°C° 0 mm 2 mps 680 mmHg 67%
    12:00 +3°C° 0 mm 2 mps 680 mmHg 66%
    13:00 +3°C° 0 mm 2 mps 680 mmHg 68%
    14:00 +2°C° 0 mm 3 mps 680 mmHg 70%
    15:00 +2°C° 0 mm 3 mps 680 mmHg 73%
    16:00 +1°C° 0 mm 3 mps 680 mmHg 75%
    17:00 0°C° 0 mm 3 mps 680 mmHg 76%
    18:00 0°C° 0 mm 3 mps 679 mmHg 78%
    19:00 0°C° 0 mm 3 mps 679 mmHg 76%
    20:00 0°C° 0 mm 3 mps 679 mmHg 74%
    21:00 -1°C° 0 mm 4 mps 679 mmHg 72%
    22:00 0°C° 0 mm 3 mps 679 mmHg 71%
    23:00 0°C° 0 mm 3 mps 678 mmHg 69%

    25 November, Sunday

    Time Temperature Precipitation Wind Pressure Humidity
    00:00 0°C° 0 mm 3 mps 678 mmHg 68%
    01:00 0°C° 0 mm 3 mps 677 mmHg 67%
    02:00 +1°C° 0 mm 3 mps 677 mmHg 66%
    03:00 +1°C° 0 mm 3 mps 676 mmHg 65%
    04:00 +1°C° 0 mm 3 mps 676 mmHg 64%
    05:00 +1°C° 0 mm 3 mps 675 mmHg 63%
    06:00 +2°C° 0 mm 2 mps 675 mmHg 62%
    07:00 +3°C° 0 mm 2 mps 675 mmHg 59%
    08:00 +5°C° 0 mm 2 mps 675 mmHg 55%
    09:00 +6°C° 0 mm 2 mps 675 mmHg 52%
    10:00 +7°C° 0 mm 2 mps 674 mmHg 51%
    11:00 +8°C° 0 mm 2 mps 674 mmHg 50%
    12:00 +10°C° 0 mm 1 mps 673 mmHg 48%
    13:00 +9°C° 0 mm 1 mps 673 mmHg 52%
    14:00 +9°C° 0 mm 1 mps 673 mmHg 56%
    15:00 +8°C° 0 mm 1 mps 672 mmHg 60%
    16:00 +7°C° 0 mm 1 mps 672 mmHg 62%
    17:00 +6°C° 0 mm 1 mps 672 mmHg 64%
    18:00 +5°C° 0 mm 1 mps 672 mmHg 66%
    19:00 +5°C° 0 mm 1 mps 672 mmHg 64%
    20:00 +4°C° 0 mm 2 mps 671 mmHg 63%
    21:00 +4°C° 0 mm 2 mps 671 mmHg 61%
    22:00 +4°C° 0 mm 2 mps 671 mmHg 60%
    23:00 +4°C° 0 mm 2 mps 671 mmHg 58%
    Show more